Regional Weather Roundup
Issued by NWS Northern Indiana

Home | Current Version | Previous Version | Graphics & Text | Print | Product List | Glossary On
Versions: 1 2 3 4 5 6 7 8 9 10 11 12 13 14 15 16 17 18 19 20 21 22 23 24 25 26 27 28 29 30 31 32 33 34 35 36 37 38 39 40 41 42 43 44 45 46 47 48 49 50
107
ASUS43 KIWX 101410
RWRIWX

KIWX WEATHER ROUNDUP
NATIONAL WEATHER SERVICE NORTHERN INDIANA
900 AM EST SAT DEC 10 2016

NOTE: "FAIR" INDICATES FEW OR NO CLOUDS BELOW 12,000 FEET WITH NO
SIGNIFICANT WEATHER AND/OR OBSTRUCTIONS TO VISIBILITY.

* THESE STATIONS ARE NOT UNDER NWS QUALITY CONTROL. THEY ALSO MAY NOT
  REPORT WEATHER SUCH AS PRECIPITATION OR FOG.

INZ001>027-101500-
NORTHERN INDIANA

CITY           SKY/WX    TMP DP  RH WIND       PRES   REMARKS
GARY*          CLOUDY    21  16  79 W12       30.53R WCI   9
VALPARAISO     CLOUDY    21  14  74 W9        30.51S WCI  11
MICHIGAN CITY* LGT SNOW  21  16  79 SW10      30.51R WCI  10
LAPORTE*       PTCLDY    19  14  79 W7        30.51R WCI  10
KNOX*          PTCLDY    21   3  45 W7        30.50F WCI  13
SOUTH BEND     FLURRIES  19  14  81 SW13      30.49S WCI   6
ELKHART*       LGT SNOW  21  14  73 W9        30.48S WCI  11
GOSHEN         PTCLDY    20  12  71 SW10      30.48F WCI   9
MONTICELLO*    CLOUDY    23  13  66 W6        30.52S WCI  15
LOGANSPORT*    CLOUDY    23  18  80 W7        30.53S WCI  15
ROCHESTER*     PTCLDY    25  19  80 W3        30.51S
WARSAW*        PTCLDY    19  12  73 W6        30.49F WCI  11
ANGOLA*        CLOUDY    19  14  79 W7        30.45S WCI  10
FORT WAYNE     CLOUDY    22  14  71 W8        30.51S WCI  12
HUNTINGTON*    CLOUDY    21  14  74 W3        30.51S
PERU/GRISSOM   CLOUDY    23  17  77 W10       30.50R WCI  12
MARION*        CLOUDY    23  17  77 W12       30.52R HAZE    WCI  11

$$
INZ028>050-101500-
CENTRAL INDIANA

CITY           SKY/WX    TMP DP  RH WIND       PRES   REMARKS
LAFAYETTE      CLOUDY    22  17  81 W6        30.54S WCI  14
KOKOMO*        CLOUDY    23  17  78 SW12      30.52S WCI  12
MUNCIE*        CLOUDY    24  17  74 W7        30.51S WCI  16
INDIANAPOLIS   CLOUDY    22  15  75 W8        30.54S WCI  12

$$
MIZ043>046-050>051-056>058-064>065-071>073-077>080-101500-
SOUTHWEST LOWER MICHIGAN

CITY           SKY/WX    TMP DP  RH WIND       PRES   REMARKS
BATTLE CREEK   LGT SNOW  21  18  88 SW10      30.43F FOG     WCI  10
BENTON HARBOR  LGT SNOW  25  18  74 W10       30.47R WCI  15
COLDWATER*     PTCLDY    19  14  82 SW6       30.45S WCI  10
HILLSDALE*     CLEAR     18  14  86 SW7       30.43S WCI   8
HOLLAND        LGT SNOW  25  18  74 NW12      30.44R WCI  14
GRAND RAPIDS   SNOW      24  20  84 W8        30.42S VSB 1/2 WCI  15
KALAMAZOO      LGT SNOW  21  16  81 SW12      30.44F WCI   9
STURGIS*       PTCLDY    19  14  81 SW7       30.45F WCI  10
THREE RIVERS*  CLOUDY    20  15  80 SW7       30.46F WCI  11

$$
OHZ001>008-015>018-024>025-101500-
NORTHWEST OHIO

CITY           SKY/WX    TMP DP  RH WIND       PRES   REMARKS
WAUSEON*       FAIR      21  16  79 W12       30.48R WCI   9
DEFIANCE       CLOUDY    22  14  71 SW6       30.51R WCI  14
FINDLAY        MOCLDY    22  13  68 W14       30.50R WCI   9
TOLEDO EXPRESS PTCLDY    21  16  81 W12       30.48S WCI   9
TOLEDO METCALF MOCLDY    22  16  78 W8        30.50R WCI  12
LIMA           CLOUDY    20  15  81 W8        30.51R WCI  10

$$
AND FOR LAKE MICHIGAN COASTAL AND OPEN LAKE BUOY OBSERVATIONS

STATION/POSITION TEMP    WIND        PRES    VSBY  WAVE
                 AIR SEA DIR/SP/G                  HT/PER
                 (F)     (DEG/KT/KT) (MB)    (MI)  (FT/S)
CALUMET HARBOR    20     240/  5/  9 1032.8R
BURNS HARBOR      22     230/ 11/ 14 1033.5R
SAINT JOSEPH      27     250/ 15/ 19 1031.5

$$
&&




USA.gov is the U.S. government's official web portal to all federal, state and local government web resources and services.